Skip Page Navigation
NASA JPL Caltech
NASA Logo - Jet Propulsion Laboratory + View the NASA Portal
+ Center for Near-Earth Object Studies
JPL Home Earth Solar System Stars & Galaxies Technology
JPL Solar System Dynamics
BODIES ORBITS EPHEMERIDES TOOLS PHYSICAL DATA DISCOVERY FAQ SITE MAP
JPL Small-Body Database Browser
Search: [ help ]  
346 Hermentaria (A892 WC)
Classification: Main-belt Asteroid          SPK-ID: 2000346
Ephemeris | Orbit Diagram | Orbital Elements | Mission Design | Physical Parameters | Discovery Circumstances | Close-Approach Data ]

[ show orbit diagram ]
Orbital Elements at Epoch 2459200.5 (2020-Dec-17.0) TDB
Reference: JPL 42 (heliocentric ecliptic J2000)
 Element Value Uncertainty (1-sigma)   Units 
e .1023510320479453 2.5976e-08  
a 2.795410970487306 7.8597e-09 au
q 2.509297772659782 7.0578e-08 au
i 8.75214299451808 2.3977e-07 deg
node 91.93681360724965 4.1755e-06 deg
peri 291.9048565297555 1.146e-05 deg
M 166.1182379149813 1.2385e-05 deg
tp 2458412.762102372936
(2018-Oct-21.26210237)
5.6851e-05 TDB
period 1707.131298195453
4.67
7.1998e-06
1.971e-08
d
yr
n .2108800889425101 8.8938e-10 deg/d
Q 3.08152416831483 8.6642e-09 au
  Orbit Determination Parameters
   # obs. used (total)      2616  
   data-arc span      46849 days (128.27 yr)  
   first obs. used      1892-11-27  
   last obs. used      2021-03-05  
   planetary ephem.      DE441  
   SB-pert. ephem.      SB441-N16  
   condition code      0  
   norm. resid. RMS      .50827  
   source      ORB  
   producer      Otto Matic  
   solution date      2021-Apr-12 10:44:05  

Additional Information
 Earth MOID = 1.52854 au 
 Jupiter MOID = 2.3608 au 
 T_jup = 3.303 
[ show covariance matrix ]

Ephemeris | Orbit Diagram | Orbital Elements | Mission Design | Physical Parameters | Discovery Circumstances | Close-Approach Data ]

Physical Parameter Table
Parameter Symbol Value Units Sigma Reference Notes
absolute magnitude H 7.33   n/a E2021B10 IRAS observations used: 12
diameter diameter 86.447 km 1.926 urn:nasa:pds:neowise_diameters_albedos::2.0[mainbelt] (http://adsabs.harvard.edu/abs/2014ApJ...791..121M)  
rotation period rot_per 28.523 h n/a LCDB (Rev. 2020-October); Warner et al., 2009 Published Reference List:
[Harris, A.W.; Young, J.W. (1989) Icarus 81, 314-364.]
[Bembrick, C.S.; Pereghy, B.; Ainsworth, A.; Bolt, G. (2004) Minor Planet Bull. 31, 52-53.]
[Pilcher, F. (2016) Minor Planet Bull. 43, 222-224.]
[Pal, A.; Szakats, R.; Kiss, C.; Bodi, A.; et al. (2019) Ap. J. Supl. Ser. 247, id.26.]
geometric albedo albedo 0.332   0.071 urn:nasa:pds:neowise_diameters_albedos::2.0[mainbelt] (http://adsabs.harvard.edu/abs/2014ApJ...791..121M)  
B-V BV 0.843   0.026 EAR-A-5-DDR-UBV-MEAN-VALUES-V1.2 #obs=3; phase (min.=4.82, mean=11.55, max.=17.85) deg.
U-B UB 0.485   0.019 EAR-A-5-DDR-UBV-MEAN-VALUES-V1.2 #obs=3; phase (min.=4.82, mean=11.55, max.=17.85) deg.
Tholen spectral type spec_T S   n/a EAR-A-5-DDR-TAXONOMY-V4.0 used 7 color indices
SMASSII spectral type spec_B S   n/a EAR-A-5-DDR-TAXONOMY-V4.0 based on a high-resolution spectrum by Xu et al. (1995) or Bus and Binzel (2002)

346 Hermentaria (A892 WC)          Discovered 1892-Nov-25 by Charlois, A. at Nice
Reference: DISCOVERY.DBLast Updated: 2003-08-29

[ hide close-approach data ]
Close-Approach Data   ...sorted by Date/Time (TDB)
Date/Time (TDB) Time Uncertainty
(days_HH:MM)
Body Nominal Distance (au) Minimum Distance (au) Maximum Distance (au) V-relative (km/s) V-infinity (km/s) JD (TDB) Time Uncertainty (minutes) Semi-major axis (km) Semi-minor axis (km) range-LOV angle (deg) N-sigma BP Orbit Ref. Reference Modified
2135-Nov-10 05:45 00:09 Vesta 0.0254605874020068 0.0254575774372001 0.0254635978619786 1.92616151818229 1.92615909194238 2501165.739872249 9.23040382275151 232.509586636476 34.7293781923248 51.2671893044502 84637.7784471585 T 42 CATAB v2.0f-lin.ifort 2021-Apr-12 10:44:56 2021-Apr-12 10:44
Ephemeris | Orbit Diagram | Orbital Elements | Mission Design | Physical Parameters | Discovery Circumstances | Close-Approach Data ]
ABOUT SSD CREDITS/AWARDS PRIVACY/COPYRIGHT GLOSSARY LINKS
FirstGov 2021-Apr-14 17:49 UT
(server date/time)  
NASA Home Page
Site Manager:   Ryan S. Park
Webmaster  Alan B. Chamberlin